Strona główna
METAR-TAF:

METAR-TAF

Lotnisko :

Platforma wiertnicza

Ula, Norwegia

Szerokość geograficzna: 59-06-39N, Długość geograficzna: 2-50-45E, wysokość: 0 m

Aktualna obserwacja pogody

Raport powstał 31 minut temu, godzina 14:20 UTC
Wiatr 16 kt od północny zachód
Temperatura 11°C
Wilgotność 66%
Ciśnienie 997 hPa
Widzialność 10 km lub więcej

METAR: ENLA 041420Z AUTO 32016KT 9999NDV BKN019/// BKN083/// 11/05 Q0997 W///S4

czas: 16:51 (14:51 UTC)


TAF: brakujący

Obserwacja i prognoza pogody dla ponad 4000 lotnisk (raport METAR i TAF).

Dostępne stacje oznaczono żółtymi i czerwonymi punktami na mapie.

Najedź kursorem aby zobaczyć nazwę stacji.

Kliknij aby zobaczyć obserwacje i prognozy pogody.

Aby zmienić mapę: kliknij na zielony przycisk z czarnym krzyżykiem, aby powiększyć; na zielony przycisk z myślnikiem, aby pomniejszyć; na zielone strzałki, aby przejść do map sąsiednich.


METAR-TAF: